Время (UTC), дата Ветер
(°,м/с) 
Видим.   Явления Облачность Т
(°С)
Тd
(°С)
f(%) Тe
(°С)
Pmin
(гПа)
dP
(гПа)
Po
(мм)
O2
(г/м3)
Тmin Tmax R s Состояние
почвы
00 01.09.12 310 (СЗ) 10 км    10/6 600 м средняя 
[Sc|As op]
+9 +5.7 80 +8  1009  -0.3  746  290           
03 01.09.12 310 (СЗ) 10 км    9/5 600 м средняя 
[Sc|Ac cast]
+8.3 +5.4 82 +8  1009.1  0.1  746  291  +8.2        влажная 
06 01.09.12 290 (З) >10 км    9/8 500 м кучево-дожд., средняя 
[Cb calv|Ac lent]
+9.1 +4.8 74 +8  1009.6  0.5  747  290  +8.1         
09 01.09.12 310 (СЗ) >10 км  в посл. час морось  10/9 700 м средняя 
[Sc|Ac lent]
+10.4 +6.5 77 +10  1010.3  0.7  747  289           
15 01.09.12 330 (СЗ) 10 км  слаб. дождь  10/10 300 м 
[Frnb]
+8.9 +7.1 88 +9  1013.5  750  291    +11.7     
21 01.09.12 010 (С) 10 км  {дождь}  10/10 500 м 
[Sc]
+8.4 +5.8 84 +8  1015.5  0.5  751  293           
00 02.09.12 350 (С) 10 км  {дождь}  10/3 600 м средняя 
[Sc|Ac lent]
+7.3 +4.2 81 +7  1017.7  2.1  753  295           
03 02.09.12 030 (СВ) 10 км    10/8 600 м средняя 
[Sc|Ac lent]
+7.3 +4.1 80 +7  1019.3  1.6  754  295  +7.2      влажная 
06 02.09.12 010 (С) 4{11}  >10 км    8/8 900 м 
[Cu hum]
+9.6 +3.6 66 +9  1020.6  1.4  755  293           
09 02.09.12 010 (С) 3{10}  >10 км    5/4 600 м верхняя 
[Cu hum|Ci fib]
+12.4 +3.4 54 +12  1020.9  0.4  755  291           
12 02.09.12 020 (С) 4{10}  >10 км    4/0 средняя, верхняя 
[Ac cast|Ci sp]
+14.3 +3.7 49 +14  1020.7  0.1  755  289           
15 02.09.12 010 (С) >10 км    8/4 600 м средняя, верхняя 
[Cu hum|Ac cast|Ci fib]
+13.5 +4.7 55 +14  1021.1  0.3  755  289    +14.7       
18 02.09.12 тихо ()   10 км    1/0 средняя 
[Ac lent]
+9.6 +5.6 76 +10  1021.4  0.1  755  293    +14.7       
21 02.09.12 тихо ()   10 км    3/0 верхняя 
[Ci fib]
+7.3 +5.6 89 +7  1020.6  -0.9  755  295           
00 03.09.12 тихо ()   10 км    10/0 верхняя 
[Cs]
+7.7 +6.3 91 +8  1020.3  -0.2  755  295           
03 03.09.12 тихо ()   >10 км    10/0 средняя, верхняя 
[Ac lent|Cs]
+8 +6.9 93 +8  1019.6  -0.7  754  294  +6.7        влажная 
06 03.09.12 280 (З) 10 км    10/0 средняя 
[Ac As]
+11.6 +7.6 76 +13  1018.4  -1  753  290           
09 03.09.12 290 (З) >10 км    8/1 1000 м верхняя 
[Cu med, cong|Ci fib]
+15.4 +5.8 53 +16  1017.3  -1  753  286           
12 03.09.12 310 (СЗ) >10 км    8/5 600 м средняя 
[Cu Sc|Ac cast]
+17.3 +6.5 49 +18  1016.4  -0.8  752  284           
15 03.09.12 300 (СЗ) >10 км    3/1 600 м средняя 
[Sc|Ac cast]
+14.7 +7.3 61 +15  1016.3  0.1  752  286    +17.3       
18 03.09.12 320 (СЗ) 10 км    4/3 600 м средняя 
[Sc|Ac cast]
+12.4 +8.1 75 +14  1016.8  0.4  752  289    +17.3       
21 03.09.12 340 (С) 10 км    4/0 средняя 
[Ac lent]
+10.5 +7.6 82 +12  1016.9  752  291           
00 04.09.12 330 (СЗ) 10 км    ясно 
+9.4 +7.4 87 +10  1017  0.1  752  292           
03 04.09.12 310 (СЗ) >10 км    4/0 средняя, верхняя 
[Ac lent|Ci fib]
+8.7 +7.7 93 +10  1016.9  0.1  752  292  +7.1        влажная 
06 04.09.12 080 (В) 10 км  {туман}  8/8 600 м 
+9.4 +7.4 87 +10  1017  0.1  752  292           
09 04.09.12 260 (З) >10 км    9/8 600 м верхняя 
[Cu med, cong|Cs]
+15.1 +7.3 60 +16  1015.5  -0.8  751  286           
12 04.09.12 250 (З) >10 км    9/8 1230 м средняя, верхняя 
[Cu Sc|Ac lent|Cs]
+15.8 +6.7 55 +17  1014.6  -0.8  751  285           
15 04.09.12 тихо ()   >10 км    9/6 600 м верхняя 
[Sc|Cs]
+14.1 +8.8 70 +14  1013.5  -1.1  750  286    +16.7       
18 04.09.12 160 (Ю) 10 км  {морось}  10/0 средняя 
[Ac cast]
+12.2 +9.3 82 +13  1013  -0.6  749  287    +16.7       
21 04.09.12 тихо ()   10 км    9/0 средняя 
[Ac cast]
+11.2 +8.6 84 +11  1012.4  -0.7  749  288           
00 05.09.12 150 (ЮВ) 10 км  слаб. дождь  10/10 300 м 
[Ns]
+11.1 +8.9 86 +12  1011.6  -0.7  748  288           
03 05.09.12 120 (ЮВ) 10 км  {дождь}  10/10 600 м 
[Sc]
+11.8 +10.2 90 +14  1010.6  -1  748  287  +10.9    0.3    влажная 
06 05.09.12 180 (Ю) >10 км  {дождь}  9/3 600 м средняя 
[Sc|Ac cast]
+14 +11.8 87 +19  1010.8  0.3  748  284  +10.9         
09 05.09.12 230 (ЮЗ) >10 км    9/5 600 м средняя 
[Sc|Ac cast]
+17.2 +12.4 73 +24  1010.5  -0.2  748  281           
12 05.09.12 тихо ()   2000 м    9/5 600 м кучево-дожд., средняя 
[Cb cap|Ac cast]
+18 +11.8 67 +22  1010.6  0.1  748  280           
15 05.09.12 270 (З) >10 км    8/5 600 м средняя 
[Cu Sc|Ac cast]
+16.6 +12 74 +22  1011.1  0.4  748  282    +18.3       
18 05.09.12 280 (З) 10 км    3/0 средняя 
[Ac lent]
+13.8 +12 89 +19  1012  0.8  749  285    +18.3       
21 05.09.12 270 (З) 10 км    ясно 
+12.4 +11.4 94 +17  1012.3  0.8  749  286           
00 06.09.12 300 (СЗ) 10 км    ясно 
+10.6 +9.8 95 +13  1013.2  0.4  749  289           
03 06.09.12 250 (З) 10 км    3/0 средняя, верхняя 
[Ac lent|Ci fib]
+11 +10.1 94 +13  1013  1.2  749  288  +10        влажная 
06 06.09.12 250 (З) >10 км    5/1 1000 м средняя 
[Cu hum|Ac cast]
+15.8 +11.7 77 +20  1012.7  749  283           
09 06.09.12 250 (З) >10 км    8/5 600 м средняя 
[Cu med, cong|Ac cast]
+19 +9.1 53 +19  1011.8  -0.7  749  280           
12 06.09.12 250 (З) >10 км    10/10 1170 м 
[Sc diur, vesp]
+19.1 +9.4 53 +20  1011.2  -0.6  748  280           
15 06.09.12 250 (З) >10 км    9/6 1080 м средняя 
[Sc|Ac lent]
+17.9 +10.3 61 +21  1010.8  -0.5  748  281    +20.2       
18 06.09.12 240 (ЮЗ) 10 км    8/8 1080 м 
[Sc]
+16.7 +11.7 72 +22  1010.4  -0.4  748  282           
21 06.09.12 240 (ЮЗ) 10 км    10/10 1000 м 
[Sc]
+16.3 +11.6 74 +20  1010.1  -0.4  747  282           
00 07.09.12 190 (Ю) 10 км  слаб. дождь  10/10 300 м 
[Sc]
+14.4 +12.9 91 +21  1009.3  -0.9  747  283           
03 07.09.12 160 (Ю) 10 км  {дождь}  10/8 420 м средняя 
[Sc|Ac cast]
+13.9 +12.3 90 +19  1008.1  -1.2  746  284  +13.8      влажная 
06 07.09.12 220 (ЮЗ) 10 км  {дождь}  10/0 средняя, верхняя 
[Ac cast|Ci fib]
+17.5 +12.3 72 +24  1006.5  -1.4  745  280           
09 07.09.12 250 (З) 3{10}  >10 км    10/9 800 м верхняя 
[Sc|Ci fib]
+20.8 +11.3 55 +24  1004.5  -1.8  743  276           
12 07.09.12 210 (ЮЗ) 2{10}  >10 км    10/5 600 м верхняя 
[Sc|Cs]
+21.4 +10.2 49 +23  1002.7  -1.8  742  275           
15 07.09.12 300 (СЗ) 10 км  слаб. ливневой дождь  10/10 300 м кучево-дожд. 
[Cb cap]
+15.9 +12.3 79 +21  1002.8  -0.2  742  280    +21.9       
18 07.09.12 280 (З) 10 км  слаб. дождь{ливн. осадки}  10/10 300 м 
[Sc diur, vesp]
+13.1 +11.7 91 +18  1003.6  0.7  742  283    +21.9       
21 07.09.12 260 (З) 10 км  слаб. дождь  10/10 300 м 
[Frnb|Ns]
+12.4 +11.4 94 +17  1003.3  -0.3  742  284           
00 08.09.12 240 (ЮЗ) 10 км  слаб. дождь  10/10 300 м 
[Frnb|Ns]
+11.9 +11.1 95 +16  1002.7  -0.7  742  284           
03 08.09.12 тихо ()   10 км  {дождь}  10/10 300 м 
[St]
+11.9 +11.2 95 +15  1002.1  -0.5  741  284  +11.8      мокрая 
09 08.09.12 280 (З) >10 км  {дождь}  8/8 600 м верхняя 
[Sc diur, vesp|Ci]
+14.2 +9.2 72 +14  1002.2  0.2  741  282           
12 08.09.12 280 (З) >10 км  {дождь}  5/4 600 м верхняя 
[Sc diur, vesp|Ci fib]
+15.6 +5.2 50 +16  1002.7  0.5  742  282           
15 08.09.12 260 (З) >10 км    3/3 600 м 
[Sc diur, vesp]
+13.9 +4.8 54 +14  1003  0.2  742  284    +15.9  0.3     
18 08.09.12 250 (З) 10 км    10/0 средняя 
[Ac cast]
+12.4 +7.2 71 +12  1003.8  0.7  743  285    +15.9       
21 08.09.12 270 (З) 10 км    ясно 
+10.9 +7.1 77 +11  1005  1.1  743  287           
00 09.09.12 170 (Ю) 10 км    ясно 
+8.2 +6.1 87 +9  1005.7  0.6  744  290           
03 09.09.12 160 (Ю) 10 км    9/0 верхняя 
[Ci fib]
+7.4 +6.4 93 +7  1005.9  0.3  744  291  +7        влажная 
06 09.09.12 150 (ЮВ) >10 км    10/0 средняя, верхняя 
[Ac As|Cs]
+12.1 +8.7 80 +12  1006.1  -0.1  744  285           
09 09.09.12 170 (Ю) >10 км    10/4 1080 м средняя 
[Sc|As op]
+15 +8.8 66 +15  1003.9  -1.7  743  282           
12 09.09.12 190 (Ю) >10 км    10/4 1000 м средняя 
[Sc|Ac As]
+15.4 +9.3 67 +16  1002.1  -1.8  741  281           
15 09.09.12 150 (ЮВ) >10 км  в посл. час ливневой дождь{гроза} [макс. диам. градин 4 мм]  10/0 средняя 
[Ac As]
+10.7 +9 89 +11  1001.6  -0.7  741  286    +15.5     
18 09.09.12 250 (З) 10 км  слаб. дождь{гроза, ливн. осадки}  10/10 300 м 
[Frnb|Ns]
+11.5 +10 91 +13  1000.8  -0.8  740  284    +15.5       
21 09.09.12 140 (ЮВ) 10 км  слаб. дождь  10/10 300 м 
[Frnb|Ns]
+11.7 +10.3 91 +13  997.8  -3  738  283           
00 10.09.12 230 (ЮЗ) 1{11}  10 км  {дождь}  8/8 270 м 
[St]
+9.7 +8 89 +11  996.9  -0.9  737  285           
03 10.09.12 170 (Ю) 10 км  дождь  10/10 200 м 
[Frnb|Ns]
+7.7 +5.9 88 +8  996.2  -0.8  737  288  +7.6      мокрая 
06 10.09.12 250 (З) >10 км  слаб. морось{дождь}  10/10 360 м 
[Sc]
+7.4 +5.5 88 +7  996.4  0.3  737  288  +7.4         
09 10.09.12 240 (ЮЗ) >10 км  в посл. час морось{дождь}  10/10 360 м 
[Frnb]
+9.2 +6.4 83 +8  997.4  738  286           
12 10.09.12 290 (З) >10 км  слаб. дождь{морось}  10/10 400 м 
[Frnb]
+9.5 +7.5 87 +9  999.5  739  287           
15 10.09.12 310 (СЗ) 10 км  слаб. дождь  10/10 400 м 
[Frnb]
+9.6 +7.6 87 +9  1002.4  2.9  741  287    +10.8     
18 10.09.12 290 (З) 4{11}  10 км  {ливн. осадки, дождь}  10/10 330 м 
[Frnb]
+9.6 +7.5 87 +9  1004.1  1.7  743  288    +10.8       
21 10.09.12 310 (СЗ) 4{12}  10 км    10/10 400 м 
[Frnb]
+9.6 +6.7 82 +9  1005.1  0.9  743  288           
03 11.09.12 310 (СЗ) 5{13}  10 км    10/8 300 м средняя 
[Frnb|Ac lent]
+8.6 +4.6 76 +7  1006.9  1.1  745  290  +8.5        мокрая 
06 11.09.12 310 (СЗ) 4{12}  10 км    9/8 600 м средняя 
[Sc|Ac cast]
+8.9 +4.3 73 +8  1007.6  0.6  745  290  +8.3         
09 11.09.12 290 (З) 5-11{12}  10 км    10/10 870 м 
[Sc]
+9.4 +3.7 68 +8  1008.1  0.5  746  290           
12 11.09.12 300 (СЗ) 5-11{15}  10 км  слаб. дождь  10/10 300 м 
[Frnb|Ns]
+9.6 +3.9 68 +8  1008.8  0.7  746  290           
15 11.09.12 310 (СЗ) 3{12}  10 км  {дождь}  10/10 630 м 
[Sc]
+10 +4.4 68 +10  1009.6  0.8  747  290    +10.3       
18 11.09.12 310 (СЗ) 10 км  {дождь}  10/10 1080 м 
[Sc]
+10.6 +4.1 64 +10  1009.9  0.3  747  289    +10.3       
21 11.09.12 310 (СЗ) 10 км    6/6 1410 м средняя 
[Sc|Ac lent]
+10 +4.4 68 +10  1009.1  -0.8  746  289           
00 12.09.12 320 (СЗ) 10 км    1/0 верхняя 
[Ci fib]
+7.8 +4.4 79 +7  1010  0.5  747  292           
03 12.09.12 310 (СЗ) 10 км    8/0 <0100 м средняя, верхняя 
[Ac As|Ci fib]
+7.7 +4.1 78 +6  1009.7  -0.1  747  292  +7.4        мокрая 
06 12.09.12 300 (СЗ) >10 км    6/1 1000 м средняя, верхняя 
[Sc|Ac As|Ci sp]
+10.3 +4.7 68 +9  1010  0.5  747  289           
09 12.09.12 290 (З) >10 км    9/1 300 м средняя 
[St|As trans]
+11.3 +4.7 64 +10  1009.8  -0.2  747  288           
12 12.09.12 280 (З) 4{12}  >10 км    8/8 870 м средняя, верхняя 
[Sc|Ac trans|Ci fib]
+11.3 +4.7 64 +11  1009.8  -0.9  746  288           
15 12.09.12 270 (З) >10 км    9/9 660 м 
[Sc]
+10.9 +7.5 80 +11  1008.6  -0.3  746  288    +12.4       
18 12.09.12 300 (СЗ) 10 км    10/5 300 м средняя 
[St|Ac cast]
+11 +8.6 85 +11  1008.5  0.1  746  287    +12.4       
21 12.09.12 300 (СЗ) 10 км    10/8 270 м средняя 
[St|Ac cast]
+10.7 +8.8 88 +11  1008.3  -0.2  746  288           
00 13.09.12 310 (СЗ) 10 км  {дождь}  10/10 700 м 
[Sc]
+10.8 +9.6 92 +13  1008.5  0.2  746  287           
03 13.09.12 330 (СЗ) 10 км    10/10 330 м 
[St]
+11.2 +10 92 +12  1009.4  0.8  747  287  +10.6        мокрая 
06 13.09.12 290 (З) >10 км    10/10 400 м 
[St|Ns]
+12.4 +10.5 88 +14  1009.9  0.6  747  286           
09 13.09.12 290 (З) >10 км    9/8 1080 м средняя 
[Sc|Ac cast]
+14.5 +10.9 79 +17  1009.9  0.6  747  284           
12 13.09.12 310 (СЗ) >10 км  {дождь}  10/6 930 м средняя, верхняя 
[Sc|Ac lent|Cs]
+16.9 +11.7 71 +22  1009.3  -0.5  747  281           
15 13.09.12 250 (З) 10 км  {дождь}  8/5 1000 м средняя, верхняя 
[Sc|Ac lent|Ci fib]
+16 +12.4 79 +22  1008.4  -1.2  746  281    +17.2  0.3     
18 13.09.12 240 (ЮЗ) 10 км  в посл. час гроза{дождь}  10/8 400 м средняя 
[St|Ac lent]
+15.2 +13.1 87 +23  1008.7  0.6  746  282    +12.4       
21 13.09.12 320 (СЗ) 10 км  слаб. дождь{гроза, ливн. осадки}  10/10 330 м 
[Frnb|Ns]
+14 +13.2 95 +21  1010.3  1.5  747  284           
00 14.09.12 030 (СВ) 10 км  {гроза, ливн. осадки}  10/10 300 м 
[St]
+14.1 +13.2 94 +21  1011.3  748  284           
03 14.09.12 300 (СЗ) 2000 м  дымка{дождь}  10/10 300 м 
[St]
+12.9 +12.3 96 +17  1012.5  1.1  749  286  +12.7      мокрая 
06 14.09.12 130 (ЮВ) 10 км    10/10 300 м 
[St]
+13.5 +12.8 96 +20  1012.8  0.4  749  285         
09 14.09.12 170 (Ю) 10 км    10/10 300 м 
[St]
+15.5 +13.2 86 +23  1014  0.9  750  283           
12 14.09.12 130 (ЮВ) >10 км    8/1 600 м средняя 
[Cu hum|Ac As]
+19.4 +14.8 75 +29  1012.9  -0.5  750  279           
15 14.09.12 150 (ЮВ) >10 км    8/5 600 м средняя, верхняя 
[Cu hum|As op|Ci fib]
+16.7 +14.3 86 +25  1013  -0.1  749  282    +19.5       
18 14.09.12 150 (ЮВ) 10 км    3/0 верхняя 
[Ci fib]
+13.7 +12.6 93 +20  1012.8  -0.4  749  285           
21 14.09.12 160 (Ю) 10 км    ясно 
+12.9 +12.1 95 +18  1012.3  -0.6  749  286           
00 15.09.12 230 (ЮЗ) 10 км    3/0 верхняя 
[Ci fib]
+12.2 +10.6 90 +15  1011.9  -0.4  749  287           
03 15.09.12 260 (З) 10 км    3/0 верхняя 
[Ci fib]
+11.6 +10 90 +14  1011.6  -0.7  748  287  +12        мокрая 
06 15.09.12 250 (З) >10 км    8/0 верхняя 
[Ci sp]
+16.9 +10.4 66 +19  1010.7  -0.3  748  282           
09 15.09.12 250 (З) >10 км    8/0 верхняя 
[Ci fib]
+23.1 +9.7 43 +24  1009.1  -1.3  747  276           
12 15.09.12 250 (З) >10 км    8/0 верхняя 
[Ci sp]
+24.8 +8.5 35 +25  1008.3  -0.7  746  274           
15 15.09.12 250 (З) 10 км    6/0 средняя, верхняя 
[Ac cast|Ci sp]
+21.4 +11.6 54 +25  1008.3  0.1  746  277    +25.1       
18 15.09.12 240 (ЮЗ) 10 км    4/0 средняя, верхняя 
[Ac lent|Ci fib]
+17.6 +11.2 66 +21  1008.5  746  280           
21 15.09.12 230 (ЮЗ) 10 км    8/6 1000 м средняя 
[Sc|Ac lent]
+17.5 +12.1 71 +23  1008.2  -0.3  746  280           
00 16.09.12 170 (Ю) 10 км  в посл. час дождь{ливн. осадки}  10/10 1000 м 
[Sc]
+15.5 +13.7 89 +24  1008  -0.3  746  282           
03 16.09.12 160 (Ю) 10 км    8/6 1000 м средняя 
[Sc|Ac lent]
+14.9 +12.6 86 +21  1007  -1  745  282  +14.8    0.5    мокрая 
06 16.09.12 210 (ЮЗ) >10 км    5/3 300 м средняя, верхняя 
[Sc|Ac trans|Ci sp]
+18.2 +14.2 77 +28  1005.9  -0.9  744  278           
09 16.09.12 260 (З) >10 км    10/3 600 м средняя 
[Sc|As trans]
+21.8 +14.4 63 +30  1004.4  -1.3  743  274           
12 16.09.12 290 (З) >10 км    10/10 1200 м 
[Sc]
+21.9 +13.8 60 +29  1003.5  -0.9  743  274           
15 16.09.12 250 (З) 3{12}  >10 км  слаб. морось{ливн. осадки}  10/3 1000 м средняя 
[As op]
+16.4 +13.2 81 +23  1003.9  0.1  743  280    +23.5     
18 16.09.12 280 (З) 4000 м  ливневой дождь  10/10 360 м кучево-дожд. 
[Cb cap]
+15.6 +13.6 88 +23  1004  0.1  743  280           
21 16.09.12 310 (СЗ) 10 км  в посл. час дождь{ливн. осадки}  3/0 средняя 
[Ac cast]
+12.9 +10.4 85 +15  1005.6  1.5  744  284           
00 17.09.12 310 (СЗ) 10 км  {ливн. осадки, дождь}  8/8 300 м 
[St]
+12 +9.9 87 +13  1007.1  1.5  745  286           
03 17.09.12 300 (СЗ) 10 км    9/9 700 м 
[St]
+11.6 +9.6 88 +12  1009  1.8  746  287  +11.4      влажная 
06 17.09.12 300 (СЗ) >10 км    5/3 600 м средняя 
[Cu Sc|Ac cast]
+13 +8.9 76 +13  1010.5  1.6  748  286           
09 17.09.12 320 (СЗ) 4{10}  >10 км    8/8 600 м 
[Cu med, cong]
+15.3 +7.5 60 +15  1011.9  1.5  749  284           
12 17.09.12 330 (СЗ) 4-10{10}  >10 км    3/3 1000 м 
[Cu hum]
+17 +4.1 42 +17  1012.9  1.1  749  284           
15 17.09.12 320 (СЗ) >10 км    ясно 
+15.4 +4.9 50 +16  1014.4  1.4  750  285    +17.3       
18 17.09.12 310 (СЗ) 10 км    ясно 
+12.8 +6.6 66 +13  1016.3  1.8  752  288           
21 17.09.12 320 (СЗ) 10 км    ясно 
+11.3 +6.8 74 +12  1017  0.6  752  290           
00 18.09.12 290 (З) 10 км    ясно 
+9.6 +6.7 82 +11  1018.2  0.6  753  292           
03 18.09.12 310 (СЗ) >10 км    ясно 
+8.6 +6.6 87 +9  1019.4  1.1  754  293  +8.6        влажная 
06 18.09.12 280 (З) >10 км    1/0 верхняя 
[Ci fib]
+12.1 +8.1 77 +12  1020  0.8  755  290           
09 18.09.12 290 (З) >10 км    6/6 1000 м 
[Cu med, cong]
+17.5 +9.6 60 +19  1019.6  0.1  754  284           
12 18.09.12 300 (СЗ) >10 км    5/5 600 м 
[Sc diur, vesp]
+17.8 +8 53 +18  1019.8  0.2  755  284           
15 18.09.12 340 (С) >10 км    1/0 средняя 
[Ac lent]
+15.5 +7.9 60 +16  1020.5  0.6  755  287    +18.5       
18 18.09.12 тихо ()   10 км    ясно 
+12.5 +8 74 +13  1021.5  0.9  756  290           
21 18.09.12 тихо ()   10 км    ясно 
+9.2 +7.4 89 +9  1022.3  0.6  756  293           
00 19.09.12 330 (СЗ) 10 км    8/0 средняя 
[Ac cast]
+11.2 +9.2 87 +12  1022.8  0.7  757  291           
03 19.09.12 310 (СЗ) >10 км    9/0 
+11 +8.6 85 +12  1024  0.8  757  292  +8.7        влажная 
06 19.09.12 310 (СЗ) 10 км    10/0 средняя 
[Ac cast]
+12.9 +9.7 81 +15  1024  0.4  758  290           
09 19.09.12 260 (З) >10 км    8/0 
[Sc]
+17.4 +6 47 +18  1024  0.2  758  286           
12 19.09.12 310 (СЗ) >10 км    6/3 600 м средняя 
[Sc|Ac cast]
+17.8 +6.8 48 +19  1023.8  -0.2  758  285           
15 19.09.12 160 (Ю) 10 км    ясно 
+14.1 +8.4 69 +15  1023.7  -0.3  757  289    +18.5       
18 19.09.12 160 (Ю) 10 км    ясно 
+11.6 +8 79 +13  1024.4  0.6  758  292           
21 19.09.12 160 (Ю) 10 км    ясно 
+10.6 +7.6 82 +12  1024.9  0.4  758  293           
00 20.09.12 160 (Ю) 10 км    ясно 
+8.5 +7 90 +10  1025.5  0.5  758  295           
03 20.09.12 160 (Ю) 10 км    3/0 средняя 
[Ac lent]
+9.5 +8.4 93 +11  1025.9  0.5  759  294  +7.5        влажная 
06 20.09.12 160 (Ю) >10 км  {туман}  3/0 средняя 
[Ac lent]
+13.2 +11.3 88 +17  1026.1  0.5  759  290           
09 20.09.12 130 (ЮВ) >10 км    5/5 600 м 
[Cu med, cong]
+17.9 +8 52 +19  1025.8  0.1  759  286           
12 20.09.12 170 (Ю) >10 км    3/3 600 м 
[Cu med, cong]
+18.3 +7.7 50 +20  1025.1  -0.6  758  285           
15 20.09.12 150 (ЮВ) >10 км    ясно 
+14.7 +8 64 +16  1025  -0.4  758  289    +18.6       
18 20.09.12 тихо ()   10 км    ясно 
+11.7 +7.9 77 +12  1025.3  0.2  758  292           
21 20.09.12 тихо ()   10 км    ясно 
+10.7 +8.1 84 +11  1025.4  758  293           
00 21.09.12 120 (ЮВ) 10 км    ясно 
+10.1 +8.1 87 +11  1025.5  0.1  758  293           
03 21.09.12 130 (ЮВ) 10 км    ясно 
+9.6 +8.1 90 +11  1025.7  0.2  759  294  +9.3        влажная 
06 21.09.12 170 (Ю) >10 км    4/0 средняя 
[Ac lent]
+13.2 +10.3 83 +15  1025.3  -0.2  758  290           
09 21.09.12 180 (Ю) >10 км    3/3 1000 м 
[Cu med, cong]
+18.7 +8.6 52 +20  1024.6  -0.4  758  284           
12 21.09.12 160 (Ю) >10 км    5/5 1000 м 
[Cu hum]
+19.4 +9.4 52 +21  1024.1  -0.5  758  283           
15 21.09.12 160 (Ю) >10 км    ясно 
+15.8 +8.8 63 +17  1023.6  -0.6  757  287    +19.8       
18 21.09.12 110 (В) 10 км    ясно 
+13.5 +7 65 +15  1023.8  0.1  757  290           
21 21.09.12 140 (ЮВ) 10 км    ясно 
+12.6 +7.5 71 +14  1023.9  0.1  757  290           
00 22.09.12 150 (ЮВ) 10 км    ясно 
+12.2 +8.4 78 +13  1023.7  -0.2  757  291           
03 22.09.12 150 (ЮВ) 10 км    ясно 
+10.6 +7.2 79 +12  1023.7  -0.1  757  293  +10.6        влажная 
06 22.09.12 160 (Ю) >10 км    ясно 
+16.1 +9.4 64 +17  1023.7  0.3  757  287  +10.2         
09 22.09.12 200 (Ю) >10 км    ясно 
+20.3 +9.1 49 +20  1023.2  -0.4  757  282           
12 22.09.12 180 (Ю) >10 км    4/3 1000 м верхняя 
[Sc|Cc]
+20.8 +5.1 36 +21  1022.4  -0.7  757  283           
15 22.09.12 150 (ЮВ) >10 км    5/0 средняя, верхняя 
[Ac lent|Ci fib]
+15.9 +5.7 51 +17  1022.6  0.1  757  287    +21.5       
18 22.09.12 тихо ()   10 км    ясно 
+13.2 +8.2 72 +13  1022.8  0.1  757  289           
21 22.09.12 тихо ()   10 км    ясно 
+11.7 +7.7 76 +12  1022.4  -0.5  756  291           
00 23.09.12 110 (В) 10 км    ясно 
+11.6 +6.9 73 +13  1021.8  -0.6  756  291           
03 23.09.12 110 (В) 10 км    10/0 верхняя 
[Ci fib]
+10.8 +7 77 +11  1021.4  -0.4  755  292  +10.5        сухая 
06 23.09.12 160 (Ю) >10 км    8/0 верхняя 
[Ci fib]
+15.5 +8.2 62 +16  1020.8  -0.4  755  287           
09 23.09.12 160 (Ю) >10 км    8/0 верхняя 
[Ci fib]
+20.2 +6.4 41 +20  1019  -1.5  754  282           
12 23.09.12 170 (Ю) >10 км    8/0 верхняя 
[Ci fib]
+20.8 +5.8 38 +21  1017.4  -1.6  753  281           
18 23.09.12 130 (ЮВ) 10 км    8/0 средняя, верхняя 
[Ac lent|Ci fib]
+15.8 +7.4 57 +17  1014.6  -1.5  751  285           
21 23.09.12 200 (Ю) 10 км    8/0 средняя 
[Ac lent]
+14.3 +8.2 67 +16  1013.4  -1.2  750  286           
03 24.09.12 140 (ЮВ) 10 км  слаб. дождь  10/10 300 м 
[Frnb|Ns]
+11.9 +10.9 94 +13  1009.8  -2.5  747  286  +11.7      влажная 
12 24.09.12 180 (Ю) 3{11}  10 км  слаб. дождь  10/10 400 м 
[Frnb|Ns]
+11.1 +9.8 92 +12  1003.6  -0.7  742  286           
15 24.09.12 160 (Ю) >10 км  {дождь}  3/3 300 м 
[Sc]
+10.7 +9.4 92 +13  1004  0.4  743  286    +13.7     
18 24.09.12 250 (З) 10 км  {дождь}  10/10 420 м 
[Sc]
+10 +7.6 85 +10  1004.6  0.6  743  287           
21 24.09.12 250 (З) 10 км    10/0 средняя 
[Ac und]
+9.5 +7 84 +10  1004.4  -0.6  743  288           
00 25.09.12 200 (Ю) 10 км    8/0 средняя 
[Ac cast]
+8.3 +6.2 87 +9  1003.1  -0.9  742  289           
03 25.09.12 180 (Ю) 10 км  слаб. дождь  10/10 330 м 
[St]
+7.8 +6.3 90 +9  1001.9  -1.3  741  289  +7.5        мокрая 
06 25.09.12 200 (Ю) 10 км  слаб. дождь  10/10 300 м 
[Frnb|Ns]
+8.1 +7 93 +8  1000.3  -1.5  740  288           
09 25.09.12 200 (Ю) 10 км  слаб. дождь  10/10 300 м 
[Frnb|Ns]
+8.2 +6.8 91 +8  999.9  -0.4  740  288           
15 25.09.12 260 (З) 10 км  {ливн. осадки, дождь}  10/10 400 м 
[Sc]
+9.6 +7.9 89 +10  1001.5  1.5  741  287    +9.8     
18 25.09.12 280 (З) 10 км  {ливн. осадки, дождь}  10/10 300 м 
[Sc]
+9.7 +6.9 83 +9  1003.9  742  288           
21 25.09.12 270 (З) 10 км    10/3 300 м средняя 
[Sc|As trans]
+8.8 +7.1 89 +7  1006.1  2.1  744  289           
00 26.09.12 280 (З) 10 км    10/0 средняя 
[Ac und]
+8.3 +7 91 +8  1007.2  1.1  745  290           
03 26.09.12 тихо ()   10 км    10/10 300 м 
[St]
+8.8 +7.8 93 +9  1007.7  0.9  745  290  +8.1        мокрая 
06 26.09.12 280 (З) 10 км  слаб. морось{ливн. осадки, дождь}  10/10 400 м 
[Sc]
+10.5 +9.3 92 +11  1008.9  1.3  746  288           
09 26.09.12 290 (З) >10 км  {морось}  9/9 700 м кучево-дожд. 
[Cb cap]
+11.6 +8 79 +11  1010.7  1.8  748  288           
12 26.09.12 300 (СЗ) >10 км  {морось}  10/9 900 м средняя 
[Sc|Ac lent]
+13.1 +7 66 +14  1011.6  0.9  748  287           
15 26.09.12 270 (З) 10 км    10/10 900 м 
[Sc]
+12.6 +7.1 69 +14  1012.6  0.9  749  287    +13.6     
18 26.09.12 310 (СЗ) 10 км    10/8 420 м средняя 
[St|Ac und]
+11.8 +8.8 82 +12  1013.5  0.9  750  288           
21 26.09.12 290 (З) 10 км  в посл. час ливневой дождь  10/10 300 м 
[St]
+10.6 +8.7 88 +11  1014  0.4  750  289           
00 27.09.12 320 (СЗ) 10 км  {ливн. осадки}  10/10 300 м 
[St]
+9.9 +7.1 83 +9  1014.9  0.9  751  291           
03 27.09.12 310 (СЗ) >10 км    9/3 600 м средняя 
[Sc|Ac cast]
+7.4 +3.1 74 +6  1016.7  1.7  752  294  +7.4    0.3    влажная 
06 27.09.12 320 (СЗ) 10 км    9/9 600 м 
[Sc]
+6.9 +2.7 75 +6  1018.9  2.1  753  296  +6.8         
09 27.09.12 340 (С) 10 км    9/9 720 м 
[Sc]
+8.5 +2.8 67 +8  1020.6  1.8  755  295           
12 27.09.12 310 (СЗ) 10 км    10/10 720 м 
[Sc]
+8.9 +3.6 69 +8  1021.8  1.2  756  294           
15 27.09.12 320 (СЗ) 10 км    10/10 870 м 
[Sc]
+8.8 +3.6 70 +9  1023.2  1.3  757  295    +9.2       
18 27.09.12 340 (С) 10 км    9/9 720 м 
[Sc]
+8 +3.5 73 +9  1025  1.8  758  296           
21 27.09.12 тихо ()   10 км    10/10 840 м 
[Sc]
+7.2 +3.7 78 +7  1025.2  0.1  758  297           
00 28.09.12 250 (З) 10 км    10/10 660 м 
[Sc]
+7.1 +4.2 82 +7  1026  0.8  759  297           
03 28.09.12 250 (З) 10 км    10/10 720 м 
[Sc]
+6.9 +3.2 77 +8  1026.1  0.1  759  298  +6.7        влажная 
06 28.09.12 240 (ЮЗ) >10 км    9/9 540 м 
[Sc]
+7.6 +3.7 76 +9  1026.3  0.2  759  297           
09 28.09.12 190 (Ю) >10 км    5/3 600 м верхняя 
[Sc|Cs]
+12.6 +6.5 66 +13  1024.4  -1.5  758  291           
12 28.09.12 190 (Ю) >10 км    8/0 средняя, верхняя 
[Ac As|Ci]
+13.4 +7.3 67 +14  1023.1  -1.3  757  289           
15 28.09.12 150 (ЮВ) >10 км    8/0 средняя, верхняя 
[Ac As|Ci fib]
+11.2 +7.1 76 +11  1022.1  -1.1  756  291    +13.9       
18 28.09.12 160 (Ю) 10 км    3/0 средняя 
[Ac cast]
+10.5 +7.3 81 +11  1020.7  -1.4  755  292           
21 28.09.12 160 (Ю) 10 км    3/0 средняя 
[Ac cast]
+10.2 +7.3 82 +10  1019.7  -1.4  754  292           
00 29.09.12 160 (Ю) 10 км    1/0 средняя 
[Ac cast]
+10.4 +7.7 83 +10  1016.6  -2.7  752  291           
03 29.09.12 160 (Ю) 10 км  в посл. час ливневой дождь  10/4 600 м кучево-дожд., средняя, верхняя 
[Cb cap|Ac cast|Cc]
+11 +8.3 83 +11  1014.1  -2.4  750  289  +10.2      влажная 
06 29.09.12 240 (ЮЗ) >10 км    9/8 960 м кучево-дожд., средняя 
[Cb calv|Ac cast]
+14.5 +9.2 70 +15  1013.8  -0.2  750  285           
09 29.09.12 250 (З) >10 км  {ливн. осадки}  8/4 600 м кучево-дожд., средняя, верхняя 
[Cb calv|Ac lent|Ci fib]
+15.4 +10.7 74 +18  1013.7  750  284           
12 29.09.12 290 (З) >10 км  {ливн. осадки}  8/3 600 м средняя, верхняя 
[Cu Sc|Ac lent|Cc]
+17 +8.8 58 +17  1014.2  0.5  750  283           
15 29.09.12 300 (СЗ) 10 км    5/3 1200 м средняя 
[Sc diur, vesp|Ac lent]
+14.6 +9.1 70 +15  1015.5  1.2  751  286    +17.4       
18 29.09.12 270 (З) 10 км    3/0 средняя 
[Ac lent]
+12 +8.2 78 +13  1017  1.3  752  289           
21 29.09.12 310 (СЗ) 10 км    ясно 
+10.7 +8.2 85 +12  1017.3  0.3  752  290           
00 30.09.12 270 (З) 10 км    ясно 
+8.6 +7.3 92 +10  1018.2  0.7  753  293           
03 30.09.12 310 (СЗ) 10 км    ясно 
+8.3 +7.2 93 +9  1019.2  0.7  753  293  +7.5        влажная 
06 30.09.12 290 (З) >10 км    8/0 <0100 м верхняя 
[Cs]
+10.8 +8.9 88 +12  1019.6  0.9  754  291  +7.4         
09 30.09.12 280 (З) >10 км    8/5 900 м верхняя 
[Cu med, cong|Ci fib]
+14.1 +8.4 69 +15  1018.7  -0.7  754  287           
12 30.09.12 290 (З) >10 км    8/4 1000 м средняя 
[Cu hum|As op]
+14.3 +5.9 57 +15  1018.3  -0.4  753  287           
15 30.09.12 160 (Ю) 10 км    10/8 1080 м средняя 
[Sc|As op]
+11.1 +5.7 69 +12  1017.5  -0.9  753  291    +15       
18 30.09.12 150 (ЮВ) 10 км    10/10 1500 м 
[Sc]
+11.2 +5.8 69 +11  1015.8  -1.7  751  290           
21 30.09.12 160 (Ю) 10 км    10/8 1320 м средняя 
[Sc|Ac lent]
+10.6 +7.9 83 +12  1013.3  -2.5  749  289           
00 01.10.12 140 (ЮВ) 10 км  в посл. час дождь  10/10 300 м 
[Frnb]
+10 +8.4 90 +10  1009.3  -4  746  289           
03 01.10.12 160 (Ю) 10 км  слаб. дождь  10/10 300 м 
[St]
+10.4 +9.3 93 +10  1004.7  -4.4  743  287  +10      влажная 
06 01.10.12 200 (Ю) 10 км  в посл. час дождь  10/10 330 м 
[St]
+11.1 +10.3 95 +14  1001.4  -3.2  741  285           
09 01.10.12 250 (З) 3{11}  10 км  слаб. ливневой дождь  9/5 600 м кучево-дожд., средняя 
[Cb cap|Ac cast]
+11.1 +8.8 86 +11  1000.1  -1.3  740  285           
12 01.10.12 280 (З) 10 км  {ливн. осадки}  10/10 420 м 
[St]
+10.4 +8.1 86 +11  1000.8  0.7  740  286           
15 01.10.12 330 (СЗ) 4-11{11}  10 км  слаб. дождь  10/10 420 м 
[Frnb|Ns]
+10.2 +8.8 91 +9  1004.2  3.3  743  287    +12.1     
18 01.10.12 320 (СЗ) 4{12}  10 км  {дождь}  10/10 500 м 
[Sc]
+9.6 +7.3 86 +9  1007.9  3.3  746  289         
21 01.10.12 330 (СЗ) 4{11}  10 км    10/10 700 м 
[Sc]
+9.7 +6.6 81 +9  1011.2  3.3  748  290           
00 02.10.12 330 (СЗ) 10 км    10/10 540 м 
[Sc]
+8.8 +6.9 88 +8  1014.4  3.1  750  292           
03 02.10.12 330 (СЗ) 10 км  {дождь}  10/10 900 м 
[Sc]
+8.2 +6 86 +8  1016.7  2.2  752  293  +8    0.8    мокрая 
06 02.10.12 330 (СЗ) 3{11}  >10 км  {дождь}  5/5 1000 м 
[Cu hum]
+8.8 +2.6 65 +8  1018.9  2.2  754  294  +7.9         
09 02.10.12 320 (СЗ) 4{10}  >10 км    3/3 600 м 
[Cu hum]
+10.8 +1.6 53 +10  1020.1  1.3  755  292           
12 02.10.12 340 (С) 3{10}  >10 км    4/4 600 м 
[Sc diur, vesp]
+11 +0.5 48 +11  1021.4  1.3  755  293           
15 02.10.12 320 (СЗ) 10 км    6/6 1000 м 
[Sc diur, vesp]
+9.2 +1 57 +9  1022.8  1.3  756  295    +11.3       
18 02.10.12 010 (С) 10 км    3/0 средняя 
[Ac cast]
+7.2 +1.7 68 +8  1023.7  0.8  757  297           
21 02.10.12 тихо ()   10 км    ясно 
+4 +1.2 82 +4  1024.9  758  301           
00 03.10.12 020 (С) 10 км    ясно 
+2.7 +0.3 84 +3  1025.5  0.9  758  302           
03 03.10.12 010 (С) 10 км    ясно 
+1.1 -0.9 87 +2  1026.2  0.6  759  305  +1        замёрзшая 
06 03.10.12 020 (С) >10 км    3/0 средняя, верхняя 
[Ac lent|Ci fib]
+4 -0.9 70 +4  1026.6  0.5  759  301           
Время (UTC), дата Ветер
(°,м/с) 
Видим.   Явления Облачность Т
(°С)
Тd
(°С)
f(%) Тe
(°С)
Pmin
(гПа)
dP
(гПа)
Po
(мм)
O2
(г/м3)
Тmin Tmax R s Состояние
почвы